User: anonymous   Login
Location: Arrodets-la-Barthe
(43.0306°N, 0.2829°E)
Time: 18:10:20
(UTC+00:00)
Language:

NOSS 2-3 (C) - Orbit

View from above orbital plane
View from above orbital plane
View from above satellite
View from above satellite

Ground track
Ground track

The orbit data is extracted from the following two-line orbital elements,

1 23908U 96029C   22014.18998275 0.00000050  00000-0  15855-4 0    02
2 23908  63.3500  67.3751 0753105  27.4807 332.5193 13.41005785    09
Epoch (UTC): 14 January 2022 04:33:34
Eccentricity: 0.0753105
inclination: 63.3500°
perigee height: 542 km
apogee height: 1669 km
right ascension of ascending node: 67.3751°
argument of perigee: 27.4807°
revolutions per day: 13.41005785
mean anomaly at epoch: 332.5193°
orbit number at epoch: 0

The dashed part of the orbit path shows where the satellite is in the earth's shadow,  

DLR